Lawton, OK

2:13 PM CST on January 21, 2017 (GMT -0600)
Lawton

Weather History for KLAW - December, 2012

Change the Weather History Date:

Wednesday, December 26, 2012

  Actual Average Record
Temperature  
Mean Temperature 22 °F -  
Max Temperature 27 °F 46 °F 78 °F (2005)
Min Temperature 16 °F 25 °F 6 °F (1983)
Degree Days  
Heating Degree Days 44    
Moisture  
Dew Point 10 °F    
Average Humidity 67    
Maximum Humidity 88    
Minimum Humidity 56    
Precipitation  
Precipitation 0.00 in - - ()
Sea Level Pressure  
Sea Level Pressure 30.25 in    
Wind  
Wind Speed 11 mph (North)    
Max Wind Speed 21 mph    
Max Gust Speed 24 mph    
Visibility 10 miles    
Events      
Averages and records for this station are not official NWS values.
T = Trace of Precipitation, MM = Missing Value Source: NWS Daily Summary

Daily Weather History Graph

Daily Weather History Graph

Search for Another Location

Airport or City:

Trip Planner

Search our weather history database for the weather conditions in past years. The results will help you decide how hot, cold, wet, or windy it might be!

Date:

Astronomy

Dec. 26, 2012 Rise Set
Actual Time 7:39 AM CST 5:30 PM CST
Civil Twilight 7:11 AM CST 5:58 PM CST
Nautical Twilight 6:39 AM CST 6:29 PM CST
Astronomical Twilight 6:08 AM CST 7:00 PM CST
Moon 4:23 PM CST (12/26) 6:04 AM CST (12/26)
Length of Visible Light 10h 47m
Length of Day
9h 51m
Waxing Gibbous, 97% of the Moon is Illuminated
Dec 26
Waxing Gibbous
Dec 28
Full
Jan 4
Last Quarter
Jan 11
New
Jan 18
First Quarter

Hourly Weather History & Observations

Time (CST) Temp. Windchill Dew Point Humidity Pressure Visibility Wind Dir Wind Speed Gust Speed Precip Events Conditions
12:53 AM 19.9 °F 7.3 °F 10.0 °F 65% 30.29 in 10.0 mi NNW 12.7 mph 21.9 mph N/A   Overcast
1:53 AM 19.9 °F 6.2 °F 10.0 °F 65% 30.27 in 10.0 mi NNW 15.0 mph - N/A   Overcast
2:53 AM 19.9 °F 3.9 °F 9.0 °F 62% 30.25 in 10.0 mi North 20.7 mph - N/A   Overcast
3:53 AM 18.0 °F 1.7 °F 8.1 °F 65% 30.25 in 10.0 mi North 19.6 mph 24.2 mph N/A   Mostly Cloudy
4:10 AM 17.6 °F 1.7 °F 8.6 °F 68% 30.21 in 10.0 mi North 18.4 mph - N/A   Scattered Clouds
4:53 AM 17.1 °F 3.6 °F 7.0 °F 65% 30.28 in 10.0 mi North 12.7 mph - N/A   Clear
5:53 AM 16.0 °F 5.3 °F 6.1 °F 65% 30.30 in 10.0 mi NW 8.1 mph - N/A   Clear
6:53 AM 16.0 °F 5.3 °F 5.0 °F 62% 30.32 in 10.0 mi NNW 8.1 mph - N/A   Clear
7:53 AM 16.0 °F 4.4 °F 5.0 °F 62% 30.32 in 10.0 mi NNW 9.2 mph 17.3 mph N/A   Clear
8:53 AM 17.1 °F 3.0 °F 7.0 °F 65% 30.33 in 10.0 mi North 13.8 mph - N/A   Clear
9:53 AM 18.0 °F 3.6 °F 8.1 °F 65% 30.34 in 10.0 mi North 15.0 mph - N/A   Clear
10:53 AM 21.0 °F 10.6 °F 9.0 °F 60% 30.36 in 10.0 mi North 9.2 mph - N/A   Clear
11:53 AM 21.9 °F 13.4 °F 9.0 °F 58% 30.34 in 10.0 mi North 6.9 mph - N/A   Clear
12:53 PM 23.0 °F 13.9 °F 10.0 °F 58% 30.28 in 10.0 mi North 8.1 mph - N/A   Clear
1:53 PM 25.0 °F 16.3 °F 12.9 °F 60% 30.23 in 10.0 mi NE 8.1 mph - N/A   Clear
2:53 PM 26.1 °F - 12.9 °F 58% 30.23 in 10.0 mi Calm Calm - N/A   Clear
3:53 PM 27.0 °F - 12.9 °F 56% 30.23 in 10.0 mi Calm Calm - N/A   Clear
4:53 PM 26.1 °F - 14.0 °F 60% 30.20 in 10.0 mi Calm Calm - N/A   Clear
5:53 PM 24.1 °F - 14.0 °F 65% 30.18 in 10.0 mi Calm Calm - N/A   Clear
7:53 PM 19.9 °F - 12.9 °F 74% 30.17 in 10.0 mi Calm Calm - N/A   Clear
8:53 PM 18.0 °F - 12.9 °F 81% 30.16 in 10.0 mi Calm Calm - N/A   Clear
9:53 PM 17.1 °F - 12.9 °F 84% 30.16 in 10.0 mi Calm Calm - N/A   Unknown
10:53 PM 17.1 °F - 14.0 °F 88% 30.16 in 10.0 mi Calm Calm - N/A   Clear
11:53 PM 19.0 °F - 16.0 °F 88% 30.13 in 10.0 mi Calm Calm - N/A   Clear